Regional Weather Roundup
Issued by NWS

Home | Current Version | Previous Version | Graphics & Text | Print | Product List | Glossary On
Versions: 1 2 3 4 5 6 7 8 9 10 11 12 13 14 15 16 17 18 19 20 21 22 23 24 25 26 27 28 29 30 31 32 33 34 35 36 37 38 39 40 41 42 43 44 45 46 47 48 49 50
000
ASUS43 KMKX 041121
RWRWI

WISCONSIN REGIONAL WEATHER ROUNDUP
NATIONAL WEATHER SERVICE MILWAUKEE/SULLIVAN WI
600 AM CDT TUE AUG 04 2015

NOTE: "FAIR" INDICATES FEW OR NO CLOUDS BELOW 12,000 FEET WITH NO
SIGNIFICANT WEATHER AND/OR OBSTRUCTIONS TO VISIBILITY.

WIZ001-002-006>008-014>016-023>028-041200-
NORTHWEST WISCONSIN

CITY           SKY/WX    TMP DP  RH WIND       PRES   REMARKS
SUPERIOR ARPT  CLEAR     49  48  96 SW3       29.92S
ASHLAND        CLEAR     52  51  97 W6        29.91R
HAYWARD        PTCLDY    48  46  93 CALM      29.94S FOG
SIREN          CLEAR     50  48  92 CALM      29.94S
CUMBERLAND     CLEAR     46  46 100 CALM      29.95S
RICE LAKE      CLEAR     50  49  95 CALM      29.96S
CHETEK         CLEAR     52  52 100 CALM      29.95R
LADYSMITH      CLEAR     52  51  93 CALM      29.95S
EAU CLAIRE     CLEAR     52  50  93 CALM      29.93S
MENOMONIE      CLEAR     55  53  92 CALM      29.95R
NEW RICHMOND   CLEAR     52  51  99 CALM      29.95S
OSCEOLA        CLEAR     51  51 100 CALM      29.97S
$$

WIZ003>005-009-010-017-018-041200-
NORTH CENTRAL WISCONSIN

CITY           SKY/WX    TMP DP  RH WIND       PRES   REMARKS
MANITOWISH WTR MOCLDY    53  53 100 W3        29.91R
ARBOR VITAE    MOCLDY    57  55  92 CALM      29.92R
WOODRUFF       MOCLDY    57  55  92 CALM      29.92R
RHINELANDER    PTCLDY    53  51  93 W6        29.92R
EAGLE RIVER    MOCLDY    54  54 100 W3        29.90S
LAND O LAKES   CLOUDY    56  55  95 W5        29.91R
PHILLIPS       CLEAR     51  51 100 CALM      29.93R
TOMAHAWK       CLEAR     52  51  94 CALM      29.93R
MEDFORD        CLEAR     51  50  97 W3        29.94R
MERRILL        NOT AVBL
$$

WIZ029-030-035-036-043>047-041200-
CENTRAL WISCONSIN

CITY           SKY/WX    TMP DP  RH WIND       PRES   REMARKS
WAUSAU         CLEAR     58  54  86 NW5       29.92R
MOSINEE        CLEAR     55  55 100 NW6       29.90F
MARSHFIELD     CLEAR     55  50  83 NW8       29.93S
STEVENS POINT  CLEAR     56  53  89 NW6       29.93R
WAUPACA        CLEAR     58  55  91 NW3       29.91R
WAUTOMA        CLEAR     52  50  93 CALM      29.93R
WISC RAPIDS    CLEAR     57  52  83 NW7       29.94R
CAMP DOUGLAS   PTCLDY    50  50 100 W6        29.93R
$$

WIZ011>013-019>022-031-037>040-048>050-041200-
NORTHEAST WISCONSIN

CITY           SKY/WX    TMP DP  RH WIND       PRES   REMARKS
ANTIGO         MOCLDY    54  54  98 W5        29.92S
SHAWANO        MOCLDY    57  55  94 W3        29.90R
OCONTO         CLEAR     52  52 100 CALM      29.88R
STURGEON BAY   MOCLDY    61  54  77 W5        29.91R
GREEN BAY      CLEAR     55  54  96 CALM      29.89S
MANITOWOC      CLOUDY    62  56  80 MISG      29.90R
APPLETON       MOCLDY    54  52  94 VRB3      29.90F
CLINTONVILLE   CLEAR     54  52  94 CALM      29.91R
OSHKOSH        CLEAR     59  51  75 W6        29.90R
$$

WIZ032>034-041-042-053>061-041200-
SOUTHWEST WISCONSIN

CITY           SKY/WX    TMP DP  RH WIND       PRES   REMARKS
LA CROSSE      CLEAR     59  56  89 CALM      29.95R
SPARTA         CLEAR     46  45  96 CALM      29.96R
VIROQUA        CLEAR     54  54 100 CALM      29.96R
BOSCOBEL       MOCLDY    53  52  96 SW3       29.97R
PRAIRIE DU CHI CLEAR     55  51  87 CALM      29.96R
PLATTEVILLE    CLEAR     56  55  95 SW5       29.97R
$$

WIZ056-057-062-063-064-067-068-041200-
SOUTH CENTRAL WISCONSIN

CITY           SKY/WX    TMP DP  RH WIND       PRES   REMARKS
REEDSBURG      CLEAR     53  52  96 CALM      29.94R
BARABOO/DELLS  CLEAR     54  49  83 CALM      29.94R
LONE ROCK      CLEAR     52  51  97 W5        29.96R
MINERAL POINT  CLEAR     55  54  94 CALM      29.96R
MADISON        PTCLDY    59  51  75 N3        29.92R
MIDDLETON      CLEAR     57  52  84 CALM      29.94R
WATERTOWN      CLEAR     51  51 100 CALM      29.92R
MONROE         CLEAR     59  54  82 W13       29.95R
JANESVILLE     CLEAR     55  54  94 CALM      29.93R
$$

WIZ051-052-058>065-066-070>072-041200-
SOUTHEAST WISCONSIN

CITY           SKY/WX    TMP DP  RH WIND       PRES   REMARKS
MILWAUKEE      CLEAR     62  52  69 SW3       29.92R
WAUKESHA       CLEAR     54  50  87 CALM      29.93S
MILWAUKEE/TIMM CLEAR     59  50  72 CALM      29.92R
RACINE         CLEAR     61  52  72 W6        29.94R
BURLINGTON     CLEAR     51  49  96 CALM      29.93R
KENOSHA        CLEAR     57  53  86 SW3       29.93R
FOND DU LAC    CLEAR     56  52  86 SW5       29.91R
SHEBOYGAN      PTCLDY    57  54  89 CALM      29.90R
WEST BEND      CLEAR     54  52  94 CALM      29.91S
JUNEAU         CLEAR     54  51  90 S3        29.93R
$$

LSZ147-162-041200-
LAKE SUPERIOR

STATION/POSITION TIME  TEMP    WIND        PRES    WAVE
                       AIR SEA DIR/SP/G            HT/PER
                 (UTC) (F)     (DEG/KT/KT) (MB)    (FT/S)
W MID LAKE BUOY  1050   56 56  350/  6/  6 1011.7R   1/ 3
DEVILS ISLAND    1100   55     280/  8/ 10 1012.7R
PORT WING        1000   56     160/  4/  5 1012.9
SAXON HARBOR     1040   61     250/  4     1012.2R
$$

LMZ867-665-643>646-041200-
LAKE MICHIGAN

STATION/POSITION TIME  TEMP    WIND        PRES    WAVE
                       AIR SEA DIR/SP/G            HT/PER
                 (UTC) (F)     (DEG/KT/KT) (MB)    (FT/S)
CHAMBERS ISLAND  1000   62     250/  4/  9 1011.2S
S GREEN BAY BUOY 1100   63 71  270/ 10/ 12 1013.3R
N MID LAKE BUOY  1050   62 67  300/ 14/ 16 1010.3R   1/ 3
NORTHPORT PIER   1000   63     310/ 12/ 16 1011.2R
SISTER BAY       1003   63     310/ 12/ 14   N/A
ALGOMA LAKESHORE 1012             CALM       N/A
KEWAUNEE LAKESHO 1000   59     310/  3/  5 1011.2R
SHEBOYGAN LAKESH 1100   63     270/  8/ 10 1012.6R
PORT WASHINGTON  1000   63     290/  4/  7 1012.9S
ATWATER BUOY     1100   61 53  260/  8/  8 1014.1R
MILWAUKEE LAKESH 1100   65     290/  5/  7   N/A
KENOSHA   LAKESH 1100   64     260/  7/  9 1013.2R
$$

TC  - TEMPERATURE IN CELSIUS
VSB - VISIBILITY IN STATUTE MILES
WCI - WIND CHILL INDEX
HX  - HEAT INDEX




USA.gov is the U.S. government's official web portal to all federal, state and local government web resources and services.